Home   Weather   The Valley   Past weeks
Flag for Anguilla

Past Weather in The Valley, Anguilla — Yesterday and Last 2 Weeks

Now
82 °F

Passing clouds.


Feels Like: 88 °F
Forecast: 88 / 81 °F
Wind: 9 mph from Northeast

Location: Juliana Airport - Saint Maarten

Current Time: Jul 21, 2019 at 11:38:31 pm

Latest Report: Jul 21, 2019 at 10:00 pm


Visibility: N/A

Pressure: 30.04 "Hg

Humidity: 74%

Dew Point: 73 °F

Location of The ValleyLocation

Past Weather in The Valley — Graph

°F

The Valley Temperature Yesterday

Maximum temperature yesterday: 91 °F (at 3:00 pm)
Minimum temperature yesterday: 82 °F (at 12:00 am)
Average temperature yesterday: 85 °F

High & Low Weather Summary for the Past Weeks

 TemperatureHumidityPressure
High91 °F (Jul 20, 3:00 pm)89% (Jul 8, 6:29 pm)30.15 "Hg (Jul 8, 6:29 pm)
Low81 °F (Jul 7, 2:00 am)52% (Jul 20, 3:00 pm)29.95 "Hg (Jul 12, 4:00 am)
Average84 °F71%30.05 "Hg
* Reported Jul 6 10:00 pm — Jul 21 10:00 pm, The Valley. Weather by CustomWeather, © 2019

Note: Actual official high and low records may vary slightly from our data, if they occured in-between our weather recording intervals... More about our weather records

Advertising

The Valley Weather History for the Previous 24 Hours

Scroll right to see more
 ConditionsComfort  
Time TempWeatherWind HumidityBarometerVisibility
10:00 pm
Sun, Jul 21
82 °FPassing clouds.9 mph74%30.04 "HgN/A
9:00 pm82 °FPassing clouds.8 mph74%30.04 "HgN/A
8:00 pm82 °FPassing clouds.7 mph74%30.04 "HgN/A
7:00 pm81 °FSprinkles. Passing clouds.10 mph79%30.01 "HgN/A
6:00 pm84 °FScattered clouds.9 mph66%30.01 "HgN/A
5:00 pm86 °FPassing clouds.10 mph62%30.01 "HgN/A
4:00 pm86 °FPassing clouds.9 mph75%30.01 "HgN/A
3:00 pm88 °FScattered showers. Scattered clouds.10 mph59%30.01 "HgN/A
2:00 pm86 °FScattered showers. Scattered clouds.10 mph70%30.04 "HgN/A
1:00 pm88 °FScattered clouds.10 mph55%30.04 "HgN/A
12:00 pm90 °FScattered clouds.10 mph55%30.04 "HgN/A
11:00 am86 °FScattered clouds.10 mph70%30.04 "HgN/A
10:00 am86 °FPassing clouds.12 mph62%30.04 "HgN/A
9:00 am84 °FScattered clouds.9 mph66%30.04 "HgN/A
8:00 am84 °FScattered clouds.9 mph70%30.04 "HgN/A
7:00 am84 °FScattered clouds.6 mph70%30.01 "HgN/A
6:00 am82 °FScattered clouds.7 mph74%30.01 "HgN/A
5:00 am82 °FPassing clouds.8 mph74%29.98 "HgN/A
4:00 am82 °FPassing clouds.9 mph74%29.98 "HgN/A
3:00 am82 °FPassing clouds.10 mph74%29.98 "HgN/A
2:00 am82 °FPassing clouds.10 mph74%29.98 "HgN/A
1:00 am82 °FPassing clouds.13 mph74%30.01 "HgN/A
12:00 am82 °FWarm.5 mph79%30.04 "HgN/A
11:00 pm
Sat, Jul 20
82 °FSprinkles. Passing clouds.10 mph79%30.04 "HgN/A
Weather by CustomWeather, © 2019

See weather overview